Year,Month,Day,Hour,Minute,Value (Times are PST for windspeed in km/hr)
2010,11,13,00,00,9.80
2010,11,13,00,01,6.60
2010,11,13,00,02,7.70
2010,11,13,00,03,7.60
2010,11,13,00,04,9.80
2010,11,13,00,05,12.00
2010,11,13,00,06,10.10
2010,11,13,00,07,12.20
2010,11,13,00,08,5.30
2010,11,13,00,09,4.90
2010,11,13,00,10,5.40
2010,11,13,00,11,2.90
2010,11,13,00,12,9.90
2010,11,13,00,13,9.30
2010,11,13,00,14,8.30
2010,11,13,00,15,4.40
2010,11,13,00,16,6.90
2010,11,13,00,17,3.50
2010,11,13,00,18,8.40
2010,11,13,00,19,8.40
2010,11,13,00,20,9.60
2010,11,13,00,21,12.50
2010,11,13,00,22,6.70
2010,11,13,00,23,8.60
2010,11,13,00,24,4.70
2010,11,13,00,25,7.20
2010,11,13,00,26,7.80
2010,11,13,00,27,12.60
2010,11,13,00,28,10.70
2010,11,13,00,29,4.70
2010,11,13,00,30,5.10
2010,11,13,00,31,8.00
2010,11,13,00,32,10.30
2010,11,13,00,33,7.20
2010,11,13,00,34,7.60
2010,11,13,00,35,6.00
2010,11,13,00,36,5.60
2010,11,13,00,37,6.40
2010,11,13,00,38,7.00
2010,11,13,00,39,8.10
2010,11,13,00,40,8.70
2010,11,13,00,41,11.70
2010,11,13,00,42,10.70
2010,11,13,00,43,13.80
2010,11,13,00,44,13.10
2010,11,13,00,45,7.50
2010,11,13,00,46,8.60
2010,11,13,00,47,4.50
2010,11,13,00,48,4.60
2010,11,13,00,49,12.40
2010,11,13,00,50,12.50
2010,11,13,00,51,9.70
2010,11,13,00,52,9.10
2010,11,13,00,53,7.80
2010,11,13,00,54,5.20
2010,11,13,00,55,4.70
2010,11,13,00,56,5.20
2010,11,13,00,57,7.50
2010,11,13,00,58,6.50
2010,11,13,00,59,12.40
2010,11,13,01,00,15.00
2010,11,13,01,01,11.40
2010,11,13,01,02,10.10
2010,11,13,01,03,10.80
2010,11,13,01,04,11.90
2010,11,13,01,05,9.60
2010,11,13,01,06,12.40
2010,11,13,01,07,7.10
2010,11,13,01,08,7.50
2010,11,13,01,09,12.20
2010,11,13,01,10,8.40
2010,11,13,01,11,5.20
2010,11,13,01,12,7.80
2010,11,13,01,13,9.70
2010,11,13,01,14,7.00
2010,11,13,01,15,8.80
2010,11,13,01,16,7.80
2010,11,13,01,17,7.90
2010,11,13,01,18,12.20
2010,11,13,01,19,9.90
2010,11,13,01,20,10.60
2010,11,13,01,21,13.70
2010,11,13,01,22,11.40
2010,11,13,01,23,15.70
2010,11,13,01,24,14.50
2010,11,13,01,25,14.10
2010,11,13,01,26,11.80
2010,11,13,01,27,16.50
2010,11,13,01,28,13.30
2010,11,13,01,29,10.90
2010,11,13,01,30,7.30
2010,11,13,01,31,7.20
2010,11,13,01,32,8.60
2010,11,13,01,33,7.60
2010,11,13,01,34,7.20
2010,11,13,01,35,10.10
2010,11,13,01,36,12.20
2010,11,13,01,37,9.90
2010,11,13,01,38,8.60
2010,11,13,01,39,15.50
2010,11,13,01,40,13.80
2010,11,13,01,41,13.20
2010,11,13,01,42,9.20
2010,11,13,01,43,17.40
2010,11,13,01,44,10.50
2010,11,13,01,45,7.30
2010,11,13,01,46,11.20
2010,11,13,01,47,7.20
2010,11,13,01,48,12.50
2010,11,13,01,49,9.70
2010,11,13,01,50,10.90
2010,11,13,01,51,15.00
2010,11,13,01,52,11.80
2010,11,13,01,53,15.30
2010,11,13,01,54,11.30
2010,11,13,01,55,8.50
2010,11,13,01,56,10.30
2010,11,13,01,57,9.20
2010,11,13,01,58,13.20
2010,11,13,01,59,5.30
2010,11,13,02,00,11.70
2010,11,13,02,01,15.40
2010,11,13,02,02,12.00
2010,11,13,02,03,10.10
2010,11,13,02,04,15.20
2010,11,13,02,05,17.70
2010,11,13,02,06,13.70
2010,11,13,02,07,9.90
2010,11,13,02,08,9.30
2010,11,13,02,09,12.20
2010,11,13,02,10,9.60
2010,11,13,02,11,13.80
2010,11,13,02,12,5.90
2010,11,13,02,13,9.60
2010,11,13,02,14,9.40
2010,11,13,02,15,10.90
2010,11,13,02,16,11.80
2010,11,13,02,17,11.10
2010,11,13,02,18,5.40
2010,11,13,02,19,9.10
2010,11,13,02,20,11.40
2010,11,13,02,21,8.70
2010,11,13,02,22,11.50
2010,11,13,02,23,13.60
2010,11,13,02,24,7.90
2010,11,13,02,25,5.50
2010,11,13,02,26,8.40
2010,11,13,02,27,11.30
2010,11,13,02,28,9.80
2010,11,13,02,29,8.00
2010,11,13,02,30,13.40
2010,11,13,02,31,9.90
2010,11,13,02,32,10.30
2010,11,13,02,33,6.60
2010,11,13,02,34,11.40
2010,11,13,02,35,10.20
2010,11,13,02,36,13.00
2010,11,13,02,37,12.70
2010,11,13,02,38,11.90
2010,11,13,02,39,10.70
2010,11,13,02,40,7.10
2010,11,13,02,41,7.50
2010,11,13,02,42,7.60
2010,11,13,02,43,4.70
2010,11,13,02,44,6.10
2010,11,13,02,45,4.90
2010,11,13,02,46,7.90
2010,11,13,02,47,7.40
2010,11,13,02,48,7.40
2010,11,13,02,49,4.60
2010,11,13,02,50,6.90
2010,11,13,02,51,7.40
2010,11,13,02,52,7.40
2010,11,13,02,53,6.80
2010,11,13,02,54,16.30
2010,11,13,02,55,13.40
2010,11,13,02,56,10.20
2010,11,13,02,57,6.10
2010,11,13,02,58,4.20
2010,11,13,02,59,4.10
2010,11,13,03,00,9.80
2010,11,13,03,01,7.90
2010,11,13,03,02,3.10
2010,11,13,03,03,4.70
2010,11,13,03,04,4.30
2010,11,13,03,05,4.70
2010,11,13,03,06,9.50
2010,11,13,03,07,6.50
2010,11,13,03,08,5.60
2010,11,13,03,09,3.50
2010,11,13,03,10,3.40
2010,11,13,03,11,3.90
2010,11,13,03,12,4.90
2010,11,13,03,13,2.80
2010,11,13,03,14,6.50
2010,11,13,03,15,3.10
2010,11,13,03,16,3.00
2010,11,13,03,17,5.50
2010,11,13,03,18,9.20
2010,11,13,03,19,8.40
2010,11,13,03,20,8.20
2010,11,13,03,21,5.30
2010,11,13,03,22,4.10
2010,11,13,03,23,8.00
2010,11,13,03,24,10.00
2010,11,13,03,25,9.30
2010,11,13,03,26,9.70
2010,11,13,03,27,5.80
2010,11,13,03,28,7.20
2010,11,13,03,29,6.90
2010,11,13,03,30,13.60
2010,11,13,03,31,6.60
2010,11,13,03,32,9.00
2010,11,13,03,33,12.40
2010,11,13,03,34,5.90
2010,11,13,03,35,7.20
2010,11,13,03,36,9.00
2010,11,13,03,37,5.30
2010,11,13,03,38,5.00
2010,11,13,03,39,4.90
2010,11,13,03,40,3.30
2010,11,13,03,41,6.50
2010,11,13,03,42,5.60
2010,11,13,03,43,11.00
2010,11,13,03,44,5.20
2010,11,13,03,45,4.50
2010,11,13,03,46,7.30
2010,11,13,03,47,6.70
2010,11,13,03,48,9.20
2010,11,13,03,49,7.80
2010,11,13,03,50,5.30
2010,11,13,03,51,7.70
2010,11,13,03,52,7.60
2010,11,13,03,53,10.20
2010,11,13,03,54,10.90
2010,11,13,03,55,11.80
2010,11,13,03,56,6.20
2010,11,13,03,57,7.50
2010,11,13,03,58,10.70
2010,11,13,03,59,9.70
2010,11,13,04,00,9.60
2010,11,13,04,01,7.50
2010,11,13,04,02,11.70
2010,11,13,04,03,6.40
2010,11,13,04,04,7.30
2010,11,13,04,06,7.40
2010,11,13,04,08,7.50
2010,11,13,04,09,8.60
2010,11,13,04,10,11.00
2010,11,13,04,11,6.90
2010,11,13,04,12,7.60
2010,11,13,04,13,7.20
2010,11,13,04,14,5.20
2010,11,13,04,15,7.60
2010,11,13,04,16,7.70
2010,11,13,04,17,9.20
2010,11,13,04,18,9.10
2010,11,13,04,19,5.60
2010,11,13,04,20,6.90
2010,11,13,04,21,10.50
2010,11,13,04,22,8.90
2010,11,13,04,23,10.30
2010,11,13,04,24,11.00
2010,11,13,04,25,8.10
2010,11,13,04,26,8.80
2010,11,13,04,27,9.60
2010,11,13,04,28,7.50
2010,11,13,04,29,7.60
2010,11,13,04,30,6.20
2010,11,13,04,31,9.80
2010,11,13,04,32,9.70
2010,11,13,04,33,6.90
2010,11,13,04,34,7.00
2010,11,13,04,35,7.10
2010,11,13,04,36,10.10
2010,11,13,04,37,6.90
2010,11,13,04,38,7.10
2010,11,13,04,39,5.80
2010,11,13,04,40,10.30
2010,11,13,04,41,3.70
2010,11,13,04,42,11.00
2010,11,13,04,43,10.40
2010,11,13,04,44,12.20
2010,11,13,04,45,7.80
2010,11,13,04,46,7.00
2010,11,13,04,47,7.20
2010,11,13,04,48,10.40
2010,11,13,04,49,8.50
2010,11,13,04,50,8.60
2010,11,13,04,51,6.00
2010,11,13,04,52,6.40
2010,11,13,04,53,6.90
2010,11,13,04,54,4.10
2010,11,13,04,55,7.50
2010,11,13,04,56,6.00
2010,11,13,04,57,6.90
2010,11,13,04,58,5.00
2010,11,13,04,59,5.80
2010,11,13,05,00,8.20
2010,11,13,05,01,6.80
2010,11,13,05,02,4.40
2010,11,13,05,03,6.10
2010,11,13,05,04,7.80
2010,11,13,05,05,6.80
2010,11,13,05,06,4.90
2010,11,13,05,07,3.60
2010,11,13,05,08,9.80
2010,11,13,05,09,9.70
2010,11,13,05,10,8.00
2010,11,13,05,11,6.30
2010,11,13,05,12,6.20
2010,11,13,05,13,5.10
2010,11,13,05,14,7.60
2010,11,13,05,15,4.90
2010,11,13,05,16,6.40
2010,11,13,05,17,3.00
2010,11,13,05,18,9.00
2010,11,13,05,19,6.60
2010,11,13,05,20,3.40
2010,11,13,05,21,3.30
2010,11,13,05,22,5.70
2010,11,13,05,23,7.00
2010,11,13,05,24,8.30
2010,11,13,05,25,7.40
2010,11,13,05,26,8.40
2010,11,13,05,27,6.40
2010,11,13,05,28,5.20
2010,11,13,05,29,7.70
2010,11,13,05,30,5.70
2010,11,13,05,31,4.40
2010,11,13,05,32,9.10
2010,11,13,05,33,4.20
2010,11,13,05,34,3.90
2010,11,13,05,35,5.00
2010,11,13,05,36,2.40
2010,11,13,05,37,3.90
2010,11,13,05,38,4.10
2010,11,13,05,39,10.20
2010,11,13,05,40,6.90
2010,11,13,05,41,5.80
2010,11,13,05,42,6.20
2010,11,13,05,43,8.60
2010,11,13,05,44,7.40
2010,11,13,05,45,7.30
2010,11,13,05,46,13.60
2010,11,13,05,47,8.50
2010,11,13,05,48,6.30
2010,11,13,05,49,7.80
2010,11,13,05,50,11.10
2010,11,13,05,51,6.20
2010,11,13,05,52,4.60
2010,11,13,05,53,7.20
2010,11,13,05,54,6.80
2010,11,13,05,55,6.00
2010,11,13,05,56,9.40
2010,11,13,05,57,9.40
2010,11,13,05,58,9.70
2010,11,13,05,59,7.40
2010,11,13,06,00,8.20
2010,11,13,06,01,10.60
2010,11,13,06,02,6.50
2010,11,13,06,03,11.20
2010,11,13,06,04,12.00
2010,11,13,06,05,7.90
2010,11,13,06,06,8.20
2010,11,13,06,07,6.80
2010,11,13,06,08,6.90
2010,11,13,06,09,5.90
2010,11,13,06,10,13.00
2010,11,13,06,11,7.90
2010,11,13,06,12,6.80
2010,11,13,06,13,5.20
2010,11,13,06,14,14.00
2010,11,13,06,15,10.50
2010,11,13,06,16,5.40
2010,11,13,06,17,6.10
2010,11,13,06,18,18.40
2010,11,13,06,19,18.70
2010,11,13,06,20,18.50
2010,11,13,06,21,16.30
2010,11,13,06,22,12.60
2010,11,13,06,23,12.50
2010,11,13,06,24,8.50
2010,11,13,06,25,11.90
2010,11,13,06,26,12.30
2010,11,13,06,27,15.30
2010,11,13,06,28,13.20
2010,11,13,06,29,10.90
2010,11,13,06,30,16.50
2010,11,13,06,31,12.30
2010,11,13,06,32,15.40
2010,11,13,06,33,15.40
2010,11,13,06,34,12.60
2010,11,13,06,35,9.10
2010,11,13,06,36,12.80
2010,11,13,06,37,12.40
2010,11,13,06,38,15.20
2010,11,13,06,39,11.20
2010,11,13,06,40,14.20
2010,11,13,06,41,17.40
2010,11,13,06,42,21.30
2010,11,13,06,43,15.80
2010,11,13,06,44,11.00
2010,11,13,06,45,16.50
2010,11,13,06,46,8.50
2010,11,13,06,47,8.20
2010,11,13,06,48,16.00
2010,11,13,06,49,13.90
2010,11,13,06,50,12.50
2010,11,13,06,51,15.00
2010,11,13,06,52,17.10
2010,11,13,06,53,14.90
2010,11,13,06,54,14.70
2010,11,13,06,55,15.70
2010,11,13,06,56,18.50
2010,11,13,06,57,19.00
2010,11,13,06,58,19.40
2010,11,13,06,59,10.50
2010,11,13,07,00,17.00
2010,11,13,07,01,11.80
2010,11,13,07,02,13.30
2010,11,13,07,03,18.20
2010,11,13,07,04,15.20
2010,11,13,07,05,16.80
2010,11,13,07,06,10.60
2010,11,13,07,07,15.50
2010,11,13,07,08,10.40
2010,11,13,07,09,10.00
2010,11,13,07,10,13.90
2010,11,13,07,11,11.30
2010,11,13,07,12,13.40
2010,11,13,07,13,12.40
2010,11,13,07,14,15.40
2010,11,13,07,15,17.10
2010,11,13,07,16,11.90
2010,11,13,07,17,13.90
2010,11,13,07,18,13.80
2010,11,13,07,19,12.90
2010,11,13,07,20,13.00
2010,11,13,07,21,14.50
2010,11,13,07,22,16.30
2010,11,13,07,23,17.90
2010,11,13,07,24,18.20
2010,11,13,07,25,17.50
2010,11,13,07,26,14.20
2010,11,13,07,27,16.90
2010,11,13,07,28,17.10
2010,11,13,07,29,13.80
2010,11,13,07,30,13.00
2010,11,13,07,31,7.60
2010,11,13,07,32,21.20
2010,11,13,07,33,18.10
2010,11,13,07,34,14.50
2010,11,13,07,35,14.10
2010,11,13,07,36,16.50
2010,11,13,07,37,12.30
2010,11,13,07,38,19.30
2010,11,13,07,39,17.60
2010,11,13,07,40,18.00
2010,11,13,07,41,17.20
2010,11,13,07,42,13.10
2010,11,13,07,43,11.30
2010,11,13,07,44,13.70
2010,11,13,07,45,11.50
2010,11,13,07,46,14.70
2010,11,13,07,47,15.40
2010,11,13,07,48,13.30
2010,11,13,07,49,8.50
2010,11,13,07,50,18.20
2010,11,13,07,51,12.10
2010,11,13,07,52,13.10
2010,11,13,07,53,10.40
2010,11,13,07,54,6.90
2010,11,13,07,55,11.80
2010,11,13,07,56,14.20
2010,11,13,07,57,9.70
2010,11,13,07,58,7.20
2010,11,13,07,59,10.30
2010,11,13,08,00,6.00
2010,11,13,08,01,13.10
2010,11,13,08,02,7.70
2010,11,13,08,03,8.10
2010,11,13,08,04,12.60
2010,11,13,08,05,11.90
2010,11,13,08,06,8.60
2010,11,13,08,07,13.00
2010,11,13,08,08,9.30
2010,11,13,08,09,8.80
2010,11,13,08,10,12.20
2010,11,13,08,11,9.70
2010,11,13,08,12,4.30
2010,11,13,08,13,4.70
2010,11,13,08,14,4.80
2010,11,13,08,15,7.40
2010,11,13,08,16,9.60
2010,11,13,08,17,10.50
2010,11,13,08,18,8.60
2010,11,13,08,19,10.60
2010,11,13,08,20,10.40
2010,11,13,08,21,5.80
2010,11,13,08,22,11.90
2010,11,13,08,23,6.50
2010,11,13,08,24,7.30
2010,11,13,08,25,5.40
2010,11,13,08,26,7.90
2010,11,13,08,27,9.90
2010,11,13,08,28,5.40
2010,11,13,08,29,8.30
2010,11,13,08,30,13.90
2010,11,13,08,31,5.20
2010,11,13,08,32,5.20
2010,11,13,08,33,11.20
2010,11,13,08,34,5.70
2010,11,13,08,35,8.90
2010,11,13,08,36,3.70
2010,11,13,08,37,6.40
2010,11,13,08,38,7.60
2010,11,13,08,39,10.90
2010,11,13,08,40,5.50
2010,11,13,08,41,5.00
2010,11,13,08,42,3.90
2010,11,13,08,43,5.50
2010,11,13,08,44,8.20
2010,11,13,08,45,3.90
2010,11,13,08,46,6.70
2010,11,13,08,47,6.90
2010,11,13,08,48,9.00
2010,11,13,08,49,5.60
2010,11,13,08,50,6.40
2010,11,13,08,51,9.70
2010,11,13,08,52,5.10
2010,11,13,08,53,4.50
2010,11,13,08,54,2.00
2010,11,13,08,55,6.40
2010,11,13,08,56,4.80
2010,11,13,08,57,3.80
2010,11,13,08,58,10.00
2010,11,13,08,59,8.60
2010,11,13,09,00,2.70
2010,11,13,09,01,3.80
2010,11,13,09,02,1.70
2010,11,13,09,03,7.60
2010,11,13,09,04,10.60
2010,11,13,09,05,5.70
2010,11,13,09,06,4.90
2010,11,13,09,07,5.00
2010,11,13,09,08,4.30
2010,11,13,09,09,4.60
2010,11,13,09,10,5.00
2010,11,13,09,11,5.30
2010,11,13,09,12,3.00
2010,11,13,09,13,1.40
2010,11,13,09,14,5.70
2010,11,13,09,15,7.20
2010,11,13,09,16,7.40
2010,11,13,09,17,6.50
2010,11,13,09,18,6.70
2010,11,13,09,19,4.40
2010,11,13,09,20,6.90
2010,11,13,09,21,7.30
2010,11,13,09,22,6.50
2010,11,13,09,23,8.00
2010,11,13,09,24,8.90
2010,11,13,09,25,9.50
2010,11,13,09,26,7.60
2010,11,13,09,27,8.50
2010,11,13,09,28,6.30
2010,11,13,09,29,4.90
2010,11,13,09,30,12.30
2010,11,13,09,31,5.80
2010,11,13,09,32,9.60
2010,11,13,09,33,10.70
2010,11,13,09,34,8.30
2010,11,13,09,35,6.90
2010,11,13,09,36,11.50
2010,11,13,09,37,10.30
2010,11,13,09,38,7.50
2010,11,13,09,39,8.30
2010,11,13,09,40,7.90
2010,11,13,09,41,7.00
2010,11,13,09,42,6.90
2010,11,13,09,43,5.70
2010,11,13,09,44,7.30
2010,11,13,09,45,5.50
2010,11,13,09,46,13.00
2010,11,13,09,47,9.40
2010,11,13,09,48,9.70
2010,11,13,09,49,7.10
2010,11,13,09,50,5.00
2010,11,13,09,51,7.80
2010,11,13,09,52,7.30
2010,11,13,09,53,4.20
2010,11,13,09,54,6.20
2010,11,13,09,55,6.40
2010,11,13,09,56,6.40
2010,11,13,09,57,6.40
2010,11,13,09,58,7.30
2010,11,13,09,59,11.80
2010,11,13,10,00,9.50
2010,11,13,10,01,6.90
2010,11,13,10,02,8.40
2010,11,13,10,03,13.00
2010,11,13,10,04,7.50
2010,11,13,10,05,10.90
2010,11,13,10,06,10.30
2010,11,13,10,07,10.40
2010,11,13,10,08,10.50
2010,11,13,10,09,12.20
2010,11,13,10,10,11.10
2010,11,13,10,11,9.70
2010,11,13,10,12,4.70
2010,11,13,10,13,10.20
2010,11,13,10,14,6.30
2010,11,13,10,15,5.00
2010,11,13,10,16,9.50
2010,11,13,10,17,6.60
2010,11,13,10,18,6.30
2010,11,13,10,19,8.10
2010,11,13,10,20,8.70
2010,11,13,10,21,11.10
2010,11,13,10,22,15.60
2010,11,13,10,23,13.80
2010,11,13,10,24,8.60
2010,11,13,10,25,8.30
2010,11,13,10,26,5.40
2010,11,13,10,27,8.80
2010,11,13,10,28,14.60
2010,11,13,10,29,10.00
2010,11,13,10,30,11.60
2010,11,13,10,31,11.80
2010,11,13,10,32,10.40
2010,11,13,10,33,9.10
2010,11,13,10,34,6.30
2010,11,13,10,35,7.30
2010,11,13,10,36,7.70
2010,11,13,10,37,7.50
2010,11,13,10,38,9.40
2010,11,13,10,39,8.80
2010,11,13,10,40,8.40
2010,11,13,10,41,4.60
2010,11,13,10,42,8.70
2010,11,13,10,43,5.60
2010,11,13,10,44,11.40
2010,11,13,10,45,7.80
2010,11,13,10,46,5.10
2010,11,13,10,47,5.90
2010,11,13,10,48,10.20
2010,11,13,10,49,7.40
2010,11,13,10,50,8.60
2010,11,13,10,51,7.10
2010,11,13,10,52,5.40
2010,11,13,10,53,7.70
2010,11,13,10,54,6.40
2010,11,13,10,55,5.10
2010,11,13,10,56,6.90
2010,11,13,10,57,8.30
2010,11,13,10,58,13.20
2010,11,13,10,59,14.60
2010,11,13,11,00,10.00
2010,11,13,11,01,8.70
2010,11,13,11,02,5.60
2010,11,13,11,03,8.10
2010,11,13,11,04,7.60
2010,11,13,11,05,7.70
2010,11,13,11,06,12.60
2010,11,13,11,07,11.20
2010,11,13,11,08,10.70
2010,11,13,11,09,9.60
2010,11,13,11,10,8.00
2010,11,13,11,11,10.10
2010,11,13,11,12,7.50
2010,11,13,11,13,9.00
2010,11,13,11,14,7.30
2010,11,13,11,15,7.50
2010,11,13,11,16,6.50
2010,11,13,11,17,12.90
2010,11,13,11,18,6.80
2010,11,13,11,19,5.10
2010,11,13,11,20,6.90
2010,11,13,11,21,6.60
2010,11,13,11,22,6.30
2010,11,13,11,23,8.90
2010,11,13,11,24,8.90
2010,11,13,11,25,10.50
2010,11,13,11,26,9.20
2010,11,13,11,27,4.30
2010,11,13,11,28,5.30
2010,11,13,11,29,7.40
2010,11,13,11,30,6.30
2010,11,13,11,31,6.10
2010,11,13,11,32,4.30
2010,11,13,11,33,4.10
2010,11,13,11,34,6.00
2010,11,13,11,35,6.60
2010,11,13,11,36,8.80
2010,11,13,11,37,7.20
2010,11,13,11,38,8.50
2010,11,13,11,39,6.90
2010,11,13,11,40,4.20
2010,11,13,11,41,6.20
2010,11,13,11,42,7.80
2010,11,13,11,43,12.90
2010,11,13,11,44,10.90
2010,11,13,11,45,9.70
2010,11,13,11,46,10.30
2010,11,13,11,47,15.20
2010,11,13,11,48,11.00
2010,11,13,11,49,7.80
2010,11,13,11,50,9.20
2010,11,13,11,51,11.30
2010,11,13,11,52,6.40
2010,11,13,11,53,7.70
2010,11,13,11,54,11.90
2010,11,13,11,55,11.60
2010,11,13,11,56,11.90
2010,11,13,11,57,6.90
2010,11,13,11,58,8.60
2010,11,13,11,59,13.50
2010,11,13,12,00,10.50
2010,11,13,12,01,11.40
2010,11,13,12,02,12.20
2010,11,13,12,03,12.70
2010,11,13,12,04,11.20
2010,11,13,12,05,13.20
2010,11,13,12,06,11.50
2010,11,13,12,07,7.40
2010,11,13,12,08,8.60
2010,11,13,12,09,10.20
2010,11,13,12,10,9.50
2010,11,13,12,11,7.30
2010,11,13,12,12,5.90
2010,11,13,12,13,11.40
2010,11,13,12,14,10.40
2010,11,13,12,15,10.30
2010,11,13,12,16,9.00
2010,11,13,12,17,12.80
2010,11,13,12,18,7.40
2010,11,13,12,19,10.70
2010,11,13,12,20,12.60
2010,11,13,12,21,10.60
2010,11,13,12,22,8.10
2010,11,13,12,23,9.20
2010,11,13,12,24,6.40
2010,11,13,12,25,9.10
2010,11,13,12,26,8.90
2010,11,13,12,27,6.30
2010,11,13,12,28,10.80
2010,11,13,12,29,13.30
2010,11,13,12,30,6.40
2010,11,13,12,31,3.00
2010,11,13,12,32,10.50
2010,11,13,12,33,6.00
2010,11,13,12,34,5.10
2010,11,13,12,35,8.70
2010,11,13,12,36,10.80
2010,11,13,12,37,8.50
2010,11,13,12,38,9.00
2010,11,13,12,39,10.30
2010,11,13,12,40,9.40
2010,11,13,12,41,8.90
2010,11,13,12,42,7.30
2010,11,13,12,43,4.40
2010,11,13,12,44,9.80
2010,11,13,12,45,5.00
2010,11,13,12,46,7.70
2010,11,13,12,47,12.60
2010,11,13,12,48,6.00
2010,11,13,12,49,6.90
2010,11,13,12,50,8.50
2010,11,13,12,51,5.70
2010,11,13,12,52,7.10
2010,11,13,12,53,10.30
2010,11,13,12,54,5.30
2010,11,13,12,55,10.10
2010,11,13,12,56,7.70
2010,11,13,12,57,6.50
2010,11,13,12,58,8.00
2010,11,13,12,59,6.70
2010,11,13,13,00,7.70
2010,11,13,13,01,8.50
2010,11,13,13,02,6.40
2010,11,13,13,03,5.20
2010,11,13,13,04,5.30
2010,11,13,13,05,5.20
2010,11,13,13,06,5.90
2010,11,13,13,07,6.00
2010,11,13,13,08,8.70
2010,11,13,13,09,7.90
2010,11,13,13,10,6.20
2010,11,13,13,11,6.40
2010,11,13,13,12,10.50
2010,11,13,13,13,9.30
2010,11,13,13,14,9.10
2010,11,13,13,15,7.60
2010,11,13,13,16,7.10
2010,11,13,13,17,6.90
2010,11,13,13,18,5.60
2010,11,13,13,19,4.90
2010,11,13,13,20,7.30
2010,11,13,13,21,5.30
2010,11,13,13,22,5.50
2010,11,13,13,23,6.90
2010,11,13,13,24,8.00
2010,11,13,13,25,8.50
2010,11,13,13,26,8.00
2010,11,13,13,27,11.60
2010,11,13,13,28,8.50
2010,11,13,13,29,7.80
2010,11,13,13,30,6.60
2010,11,13,13,31,6.40
2010,11,13,13,32,6.60
2010,11,13,13,33,6.30
2010,11,13,13,34,7.80
2010,11,13,13,35,6.70
2010,11,13,13,36,6.30
2010,11,13,13,37,6.50
2010,11,13,13,38,6.70
2010,11,13,13,39,9.70
2010,11,13,13,40,8.70
2010,11,13,13,41,8.30
2010,11,13,13,42,8.60
2010,11,13,13,43,8.40
2010,11,13,13,44,10.70
2010,11,13,13,45,10.10
2010,11,13,13,46,8.60
2010,11,13,13,47,8.50
2010,11,13,13,48,7.40
2010,11,13,13,49,8.50
2010,11,13,13,50,8.70
2010,11,13,13,51,9.00
2010,11,13,13,52,7.60
2010,11,13,13,53,8.30
2010,11,13,13,54,7.30
2010,11,13,13,55,8.30
2010,11,13,13,56,9.50
2010,11,13,13,57,7.50
2010,11,13,13,58,8.30
2010,11,13,13,59,9.60
2010,11,13,14,00,7.30
2010,11,13,14,01,9.40
2010,11,13,14,02,8.40
2010,11,13,14,03,8.10
2010,11,13,14,04,9.10
2010,11,13,14,05,7.40
2010,11,13,14,06,8.10
2010,11,13,14,07,7.20
2010,11,13,14,08,7.50
2010,11,13,14,09,4.30
2010,11,13,14,10,7.10
2010,11,13,14,11,6.50
2010,11,13,14,12,7.00
2010,11,13,14,13,7.20
2010,11,13,14,14,6.50
2010,11,13,14,15,5.50
2010,11,13,14,16,3.40
2010,11,13,14,17,5.70
2010,11,13,14,18,2.90
2010,11,13,14,19,5.40
2010,11,13,14,20,5.80
2010,11,13,14,21,5.10
2010,11,13,14,22,3.60
2010,11,13,14,23,5.60
2010,11,13,14,24,5.60
2010,11,13,14,25,2.70
2010,11,13,14,26,5.60
2010,11,13,14,27,4.60
2010,11,13,14,28,6.00
2010,11,13,14,29,4.30
2010,11,13,14,30,7.40
2010,11,13,14,31,6.90
2010,11,13,14,32,7.10
2010,11,13,14,33,6.50
2010,11,13,14,34,4.70
2010,11,13,14,35,6.40
2010,11,13,14,36,4.00
2010,11,13,14,37,2.20
2010,11,13,14,38,4.20
2010,11,13,14,39,3.80
2010,11,13,14,40,5.50
2010,11,13,14,41,5.60
2010,11,13,14,42,4.40
2010,11,13,14,43,3.90
2010,11,13,14,44,5.60
2010,11,13,14,45,5.20
2010,11,13,14,46,4.70
2010,11,13,14,47,4.10
2010,11,13,14,48,5.70
2010,11,13,14,49,0.80
2010,11,13,14,50,4.90
2010,11,13,14,51,9.00
2010,11,13,14,52,8.10
2010,11,13,14,53,5.30
2010,11,13,14,54,8.90
2010,11,13,14,55,5.00
2010,11,13,14,56,6.60
2010,11,13,14,57,6.90
2010,11,13,14,58,5.70
2010,11,13,14,59,6.40
2010,11,13,15,00,6.30
2010,11,13,15,01,7.00
2010,11,13,15,02,5.30
2010,11,13,15,03,7.30
2010,11,13,15,04,6.40
2010,11,13,15,05,6.90
2010,11,13,15,06,7.60
2010,11,13,15,07,7.60
2010,11,13,15,08,4.30
2010,11,13,15,09,4.90
2010,11,13,15,10,2.80
2010,11,13,15,11,3.70
2010,11,13,15,12,6.00
2010,11,13,15,13,7.20
2010,11,13,15,14,6.50
2010,11,13,15,15,8.50
2010,11,13,15,16,5.80
2010,11,13,15,17,5.60
2010,11,13,15,18,4.00
2010,11,13,15,19,4.90
2010,11,13,15,20,2.60
2010,11,13,15,21,5.00
2010,11,13,15,22,4.60
2010,11,13,15,23,4.80
2010,11,13,15,24,4.30
2010,11,13,15,25,4.70
2010,11,13,15,26,4.50
2010,11,13,15,27,4.10
2010,11,13,15,28,6.90
2010,11,13,15,29,5.50
2010,11,13,15,30,4.70
2010,11,13,15,31,8.10
2010,11,13,15,32,5.60
2010,11,13,15,33,5.00
2010,11,13,15,34,7.60
2010,11,13,15,35,6.60
2010,11,13,15,36,6.00
2010,11,13,15,37,4.30
2010,11,13,15,38,5.20
2010,11,13,15,39,7.30
2010,11,13,15,40,6.40
2010,11,13,15,41,6.20
2010,11,13,15,42,6.90
2010,11,13,15,43,6.80
2010,11,13,15,44,4.70
2010,11,13,15,45,7.80
2010,11,13,15,46,5.50
2010,11,13,15,47,3.20
2010,11,13,15,48,6.40
2010,11,13,15,49,4.80
2010,11,13,15,50,4.70
2010,11,13,15,51,7.30
2010,11,13,15,52,6.90
2010,11,13,15,53,8.90
2010,11,13,15,54,6.80
2010,11,13,15,55,4.40
2010,11,13,15,56,6.60
2010,11,13,15,57,6.40
2010,11,13,15,58,3.00
2010,11,13,15,59,3.60
2010,11,13,16,00,1.20
2010,11,13,16,01,0.90
2010,11,13,16,02,5.20
2010,11,13,16,03,5.00
2010,11,13,16,04,4.10
2010,11,13,16,05,5.30
2010,11,13,16,06,3.80
2010,11,13,16,07,4.30
2010,11,13,16,08,1.80
2010,11,13,16,09,1.60
2010,11,13,16,10,4.50
2010,11,13,16,11,1.70
2010,11,13,16,12,0.80
2010,11,13,16,13,4.50
2010,11,13,16,14,6.40
2010,11,13,16,15,6.80
2010,11,13,16,16,7.50
2010,11,13,16,17,1.80
2010,11,13,16,18,4.60
2010,11,13,16,19,3.20
2010,11,13,16,20,2.20
2010,11,13,16,21,4.30
2010,11,13,16,22,3.70
2010,11,13,16,23,2.80
2010,11,13,16,24,3.00
2010,11,13,16,25,1.40
2010,11,13,16,26,3.80
2010,11,13,16,27,3.80
2010,11,13,16,28,3.30
2010,11,13,16,29,2.70
2010,11,13,16,30,2.90
2010,11,13,16,31,0.80
2010,11,13,16,32,3.70
2010,11,13,16,33,0.70
2010,11,13,16,34,2.50
2010,11,13,16,35,2.70
2010,11,13,16,36,3.30
2010,11,13,16,37,0.70
2010,11,13,16,38,5.60
2010,11,13,16,39,3.80
2010,11,13,16,40,1.90
2010,11,13,16,41,4.70
2010,11,13,16,42,3.50
2010,11,13,16,43,3.70
2010,11,13,16,44,0.90
2010,11,13,16,45,2.40
2010,11,13,16,46,2.60
2010,11,13,16,47,1.60
2010,11,13,16,48,4.40
2010,11,13,16,49,2.00
2010,11,13,16,50,2.20
2010,11,13,16,51,5.30
2010,11,13,16,52,6.80
2010,11,13,16,53,4.60
2010,11,13,16,54,2.60
2010,11,13,16,55,1.80
2010,11,13,16,56,2.00
2010,11,13,16,57,1.20
2010,11,13,16,58,1.40
2010,11,13,16,59,3.00
2010,11,13,17,00,2.10
2010,11,13,17,01,3.60
2010,11,13,17,02,9.00
2010,11,13,17,03,8.60
2010,11,13,17,04,6.80
2010,11,13,17,05,3.50
2010,11,13,17,06,4.00
2010,11,13,17,07,2.40
2010,11,13,17,08,5.90
2010,11,13,17,09,9.30
2010,11,13,17,10,8.10
2010,11,13,17,11,5.80
2010,11,13,17,12,7.50
2010,11,13,17,13,6.50
2010,11,13,17,14,10.70
2010,11,13,17,15,6.00
2010,11,13,17,16,11.00
2010,11,13,17,17,11.30
2010,11,13,17,18,8.30
2010,11,13,17,19,8.10
2010,11,13,17,20,8.70
2010,11,13,17,21,8.30
2010,11,13,17,22,10.70
2010,11,13,17,23,10.50
2010,11,13,17,24,8.10
2010,11,13,17,25,6.20
2010,11,13,17,26,8.00
2010,11,13,17,27,9.00
2010,11,13,17,28,5.90
2010,11,13,17,29,5.10
2010,11,13,17,30,11.60
2010,11,13,17,31,8.60
2010,11,13,17,32,11.30
2010,11,13,17,33,10.20
2010,11,13,17,34,7.60
2010,11,13,17,35,6.40
2010,11,13,17,36,4.60
2010,11,13,17,37,6.70
2010,11,13,17,38,7.30
2010,11,13,17,39,5.40
2010,11,13,17,40,6.30
2010,11,13,17,41,6.00
2010,11,13,17,42,7.90
2010,11,13,17,43,5.60
2010,11,13,17,44,8.10
2010,11,13,17,45,8.10
2010,11,13,17,46,9.30
2010,11,13,17,47,10.80
2010,11,13,17,48,8.30
2010,11,13,17,49,7.30
2010,11,13,17,50,8.80
2010,11,13,17,51,7.50
2010,11,13,17,52,3.50
2010,11,13,17,53,9.80
2010,11,13,17,54,6.30
2010,11,13,17,55,5.00